Portsmouth, NH

11:54 AM EDT on June 27, 2017 (GMT -0400)
Pease International Tradeport

Weather History for KPSM - February, 2014

Change the Weather History Date:

Thursday, February 6, 2014

  Actual Average Record
Temperature  
Mean Temperature 17 °F -  
Max Temperature 24 °F 33 °F 50 °F (2012)
Min Temperature 10 °F 17 °F -14 °F (1988)
Degree Days  
Heating Degree Days 48    
Moisture  
Dew Point 9 °F    
Average Humidity 69    
Maximum Humidity 93    
Minimum Humidity 39    
Precipitation  
Precipitation 0.00 in - - ()
Snow  
Snow 0.00 in - - ()
Snow Depth 9.00 in    
Sea Level Pressure  
Sea Level Pressure 30.17 in    
Wind  
Wind Speed 5 mph (West)    
Max Wind Speed 8 mph    
Max Gust Speed -    
Visibility 10 miles    
Events Snow    
Averages and records for this station are not official NWS values.
T = Trace of Precipitation, MM = Missing Value Source: NWS Daily Summary

Daily Weather History Graph

Daily Weather History Graph

Search for Another Location

Airport or City:

Trip Planner

Search our weather history database for the weather conditions in past years. The results will help you decide how hot, cold, wet, or windy it might be!

Date:

Astronomy

Feb. 06, 2014 Rise Set
Actual Time 6:52 AM EST 5:02 PM EST
Civil Twilight 6:23 AM EST 5:32 PM EST
Nautical Twilight 5:49 AM EST 6:06 PM EST
Astronomical Twilight 5:16 AM EST 6:39 PM EST
Moon 10:32 AM EST (2/6) 12:05 AM EST (2/6)
Length of Visible Light 11h 09m
Length of Day
10h 09m
Waxing Crescent, 49% of the Moon is Illuminated
Feb 6
Waxing Crescent
Feb 6
First Quarter
Feb 14
Full
Feb 22
Last Quarter
Mar 1
New

Hourly Weather History & Observations

Time (EST) Temp. Windchill Dew Point Humidity Pressure Visibility Wind Dir Wind Speed Gust Speed Precip Events Conditions
12:58 AM 18.1 °F 10.0 °F 13.8 °F 83% 29.98 in 10.0 mi NNW 5.8 mph - N/A   Mostly Cloudy
1:58 AM 16.9 °F 11.5 °F 15.1 °F 93% 30.01 in 10.0 mi NW 3.5 mph - N/A   Partly Cloudy
2:43 AM 15.8 °F 8.6 °F 14.0 °F 93% 30.02 in 10.0 mi NW 4.6 mph - N/A   Overcast
2:58 AM 15.8 °F 8.6 °F 13.5 °F 90% 30.04 in 10.0 mi NNW 4.6 mph - N/A   Overcast
3:58 AM 18.9 °F - 16.2 °F 89% 30.08 in 10.0 mi WSW 2.3 mph - N/A   Overcast
4:58 AM 19.6 °F 14.5 °F 17.1 °F 90% 30.11 in 10.0 mi West 3.5 mph - N/A   Overcast
5:58 AM 19.2 °F 9.3 °F 14.5 °F 82% 30.14 in 10.0 mi NW 8.1 mph - N/A   Overcast
6:14 AM 19.4 °F 11.5 °F 12.2 °F 74% 30.13 in 10.0 mi WNW 5.8 mph - N/A Snow Light Snow
6:41 AM 17.6 °F 9.3 °F 12.2 °F 79% 30.15 in 10.0 mi WNW 5.8 mph - N/A   Overcast
6:58 AM 17.6 °F 8.2 °F 11.5 °F 77% 30.18 in 10.0 mi WNW 6.9 mph - 0.00 in   Mostly Cloudy
7:58 AM 16.5 °F 6.9 °F 9.3 °F 73% 30.22 in 10.0 mi West 6.9 mph - N/A   Mostly Cloudy
8:58 AM 16.2 °F 5.5 °F 5.9 °F 64% 30.25 in 10.0 mi West 8.1 mph - N/A   Mostly Cloudy
9:58 AM 17.1 °F 10.0 °F 5.9 °F 62% 30.25 in 10.0 mi WNW 4.6 mph - N/A   Mostly Cloudy
10:58 AM 19.0 °F 11.1 °F 6.3 °F 58% 30.26 in 10.0 mi West 5.8 mph - N/A   Mostly Cloudy
11:28 AM 21.2 °F 13.6 °F 5.0 °F 50% 30.24 in 10.0 mi WSW 5.8 mph - N/A   Mostly Cloudy
11:58 AM 19.8 °F 13.2 °F 5.7 °F 55% 30.25 in 10.0 mi Variable 4.6 mph - N/A   Mostly Cloudy
12:58 PM 22.5 °F 14.1 °F 7.2 °F 52% 30.23 in 10.0 mi WSW 6.9 mph - N/A   Mostly Cloudy
1:58 PM 23.9 °F 15.8 °F 4.8 °F 44% 30.21 in 10.0 mi West 6.9 mph - N/A   Mostly Cloudy
2:58 PM 24.6 °F 16.7 °F 3.4 °F 40% 30.22 in 10.0 mi West 6.9 mph - N/A   Scattered Clouds
3:58 PM 24.6 °F 17.7 °F 2.8 °F 39% 30.22 in 10.0 mi West 5.8 mph - N/A   Mostly Cloudy
4:58 PM 23.2 °F 18.7 °F 4.1 °F 44% 30.21 in 10.0 mi WSW 3.5 mph - N/A   Partly Cloudy
5:58 PM 19.9 °F - 4.5 °F 51% 30.22 in 10.0 mi South 2.3 mph - N/A   Partly Cloudy
6:58 PM 17.4 °F 12.1 °F 5.5 °F 60% 30.22 in 10.0 mi Variable 3.5 mph - N/A   Partly Cloudy
7:58 PM 15.4 °F - 6.6 °F 68% 30.21 in 10.0 mi SW 2.3 mph - N/A   Partly Cloudy
8:58 PM 14.5 °F - 6.8 °F 71% 30.19 in 10.0 mi South 2.3 mph - N/A   Mostly Cloudy
9:58 PM 11.8 °F 3.9 °F 6.4 °F 79% 30.19 in 10.0 mi West 4.6 mph - N/A   Mostly Cloudy
10:58 PM 10.8 °F 1.2 °F 9.1 °F 93% 30.19 in 10.0 mi West 5.8 mph - N/A   Mostly Cloudy
11:58 PM 12.9 °F 5.2 °F 8.6 °F 83% 30.19 in 10.0 mi WSW 4.6 mph - N/A   Mostly Cloudy